W7KKE-3 Weather Reports


Display with metric or nautical units.
time (UTC)temp
F
wind
direction
speed
MPH
gust
MPH
rain 1hr
in
rain 24hr
in
rain mn
in
humidity
%
barometer
mb
20140416215014 54 165 5.0 11.0 0.00 0.15 0.07 87 1020.2
20140416214514 54 168 7.0 14.0 0.00 0.15 0.07 87 1020.3
20140416214015 54 158 5.0 14.0 0.00 0.15 0.07 87 1020.4
20140416213514 54 163 7.0 14.0 0.00 0.15 0.07 87 1020.4
20140416213014 54 151 6.0 12.0 0.00 0.15 0.07 87 1020.5
20140416212514 54 180 7.0 12.0 0.00 0.15 0.07 87 1020.5
20140416212014 54 166 7.0 10.0 0.00 0.15 0.07 86 1020.6
20140416211514 54 142 5.0 15.0 0.00 0.15 0.07 86 1020.5
20140416211014 54 142 8.0 15.0 0.00 0.15 0.07 86 1020.6
20140416210515 54 166 9.0 15.0 0.00 0.15 0.07 86 1020.6
20140416210014 54 130 9.0 15.0 0.00 0.15 0.07 85 1020.6
20140416205514 54 165 8.0 13.0 0.00 0.15 0.07 85 1020.6
20140416205013 54 145 4.0 13.0 0.00 0.15 0.07 85 1020.6
20140416204514 54 134 5.0 13.0 0.00 0.15 0.07 85 1020.6
20140416204014 55 126 8.0 13.0 0.00 0.15 0.07 85 1020.7
20140416203513 54 165 4.0 13.0 0.00 0.15 0.07 85 1020.6
20140416203014 55 166 9.0 16.0 0.00 0.15 0.07 85 1020.7
20140416202514 55 149 7.0 16.0 0.00 0.15 0.07 84 1020.7
20140416202014 55 148 8.0 16.0 0.00 0.15 0.07 84 1020.8
20140416201513 55 165 6.0 12.0 0.00 0.15 0.07 84 1020.7
20140416201013 55 161 9.0 14.0 0.00 0.15 0.07 84 1020.7
20140416200513 54 138 7.0 14.0 0.00 0.15 0.07 84 1020.7
20140416200013 54 158 9.0 14.0 0.00 0.15 0.07 83 1020.6
20140416195514 55 151 6.0 13.0 0.00 0.15 0.07 83 1020.8
20140416195013 55 183 7.0 13.0 0.00 0.15 0.07 83 1020.8
20140416194513 55 147 5.0 11.0 0.00 0.15 0.07 84 1020.9
20140416194014 55 180 5.0 14.0 0.00 0.15 0.07 84 1020.9
20140416193514 55 142 4.0 14.0 0.00 0.15 0.07 84 1020.9
20140416193013 55 155 7.0 14.0 0.00 0.15 0.07 84 1021.0
20140416192513 55 203 5.0 13.0 0.00 0.15 0.07 85 1021.1
20140416192014 54 165 4.0 13.0 0.00 0.15 0.07 85 1021.1
20140416191514 55 156 7.0 13.0 0.00 0.15 0.07 85 1021.1
20140416190514 55 182 7.0 12.0 0.00 0.15 0.07 85 1021.0
20140416190013 54 135 6.0 14.0 0.00 0.15 0.07 85 1021.0
20140416185514 55 166 5.0 14.0 0.00 0.15 0.07 85 1021.0
20140416185015 55 134 7.0 14.0 0.00 0.15 0.07 85 1020.8
20140416184514 54 208 9.0 14.0 0.00 0.15 0.07 84 1020.8
20140416184013 55 162 8.0 14.0 0.00 0.15 0.07 84 1020.8
20140416183513 55 154 9.0 13.0 0.00 0.15 0.07 84 1020.8
20140416183013 55 159 6.0 13.0 0.00 0.15 0.07 84 1020.8
20140416182513 55 135 8.0 13.0 0.00 0.15 0.07 85 1020.8
20140416182014 55 165 9.0 13.0 0.00 0.15 0.07 85 1020.8
20140416181513 54 156 6.0 14.0 0.00 0.15 0.07 86 1020.8
20140416181014 54 163 7.0 14.0 0.00 0.15 0.07 86 1020.7
20140416180513 54 151 5.0 14.0 0.00 0.15 0.07 86 1020.7
20140416180013 54 149 7.0 12.0 0.00 0.15 0.07 87 1020.6
20140416175513 54 141 7.0 12.0 0.00 0.15 0.07 87 1020.6
20140416175013 54 148 5.0 12.0 0.00 0.15 0.07 87 1020.6
20140416174513 54 147 8.0 13.0 0.00 0.15 0.07 87 1020.7
20140416174013 54 170 7.0 13.0 0.00 0.15 0.07 88 1020.7
20140416173514 53 144 7.0 13.0 0.00 0.15 0.07 88 1020.6
20140416173013 53 165 9.0 11.0 0.00 0.15 0.07 89 1020.6
20140416172513 53 196 5.0 11.0 0.00 0.15 0.07 90 1020.6
20140416172013 53 172 7.0 10.0 0.00 0.15 0.07 90 1020.6
20140416171514 53 212 7.0 10.0 0.00 0.15 0.07 90 1020.6
20140416171013 53 180 3.0 10.0 0.00 0.15 0.07 90 1020.5
20140416170513 53 141 6.0 8.0 0.00 0.15 0.07 91 1020.6
20140416170013 53 158 2.0 11.0 0.00 0.15 0.07 91 1020.5
20140416165513 53 138 5.0 11.0 0.00 0.15 0.07 91 1020.6
20140416165013 53 154 5.0 11.0 0.00 0.15 0.07 91 1020.6
20140416164513 53 166 3.0 10.0 0.00 0.15 0.07 91 1020.6
20140416164013 52 92 1.0 10.0 0.00 0.15 0.07 92 1020.6
20140416163513 52 114 4.0 10.0 0.00 0.15 0.07 92 1020.6
20140416163013 52 114 4.0 7.0 0.00 0.15 0.07 92 1020.6
20140416162513 52 189 1.0 11.0 0.00 0.15 0.07 93 1020.5
20140416162014 52 57 4.0 11.0 0.00 0.15 0.07 92 1020.6
20140416161513 52 144 3.0 11.0 0.00 0.15 0.07 93 1020.7
20140416161013 52 106 0.0 10.0 0.00 0.15 0.07 93 1020.8
20140416160513 52 183 5.0 9.0 0.00 0.15 0.07 93 1020.8
20140416160013 51 141 2.0 8.0 0.00 0.15 0.07 93 1020.9
20140416155514 51 169 1.0 8.0 0.00 0.15 0.07 94 1021.0
20140416155013 51 145 1.0 8.0 0.00 0.15 0.07 94 1020.9
20140416154513 51 56 0.0 8.0 0.00 0.15 0.07 94 1021.0
20140416154013 51 147 3.0 7.0 0.00 0.15 0.07 94 1021.1
20140416153513 51 158 4.0 7.0 0.00 0.15 0.07 94 1021.1
20140416153013 51 145 2.0 10.0 0.00 0.15 0.07 94 1021.1
20140416152513 51 186 3.0 10.0 0.00 0.15 0.07 94 1021.2
20140416152013 50 33 0.0 10.0 0.00 0.15 0.07 94 1021.3
20140416151513 50 148 4.0 9.0 0.00 0.15 0.07 94 1021.4
20140416151013 51 0 0.0 8.0 0.00 0.15 0.07 94 1021.4
20140416150513 50 96 0.0 8.0 0.00 0.15 0.07 94 1021.4
20140416150013 50 107 2.0 8.0 0.00 0.15 0.07 94 1021.5
20140416145013 50 103 0.0 7.0 0.00 0.15 0.07 94 1021.6
20140416144513 50 141 2.0 7.0 0.00 0.15 0.07 94 1021.5
20140416144013 50 161 0.0 7.0 0.00 0.15 0.07 94 1021.5
20140416143514 51 57 0.0 5.0 0.00 0.15 0.07 94 1021.5
20140416143019 50 99 0.0 5.0 0.00 0.15 0.07 94 1021.5
20140416142513 50 67 1.0 7.0 0.00 0.15 0.07 94 1021.6
20140416142013 50 121 0.0 7.0 0.00 0.15 0.07 94 1021.6
20140416141514 50 114 2.0 7.0 0.00 0.15 0.07 94 1021.6
20140416141013 50 61 2.0 3.0 0.00 0.15 0.07 94 1021.6
20140416140513 50 84 0.0 6.0 0.00 0.15 0.07 94 1021.7
20140416140013 50 95 0.0 6.0 0.00 0.15 0.07 94 1021.7
20140416135513 50 154 0.0 6.0 0.00 0.15 0.07 94 1021.7
20140416135014 49 120 1.0 8.0 0.01 0.15 0.07 94 1021.7
20140416134513 50 64 0.0 8.0 0.01 0.15 0.07 94 1021.6
20140416134013 50 142 5.0 8.0 0.01 0.15 0.07 94 1021.6
20140416133513 50 154 0.0 6.0 0.01 0.15 0.07 94 1021.6
20140416133013 50 85 0.0 3.0 0.01 0.15 0.07 94 1021.6
20140416132513 50 127 0.0 6.0 0.01 0.15 0.07 94 1021.5
20140416132013 50 85 0.0 6.0 0.01 0.15 0.07 94 1021.5
20140416131513 50 79 0.0 6.0 0.01 0.15 0.07 94 1021.4
20140416131015 50 93 1.0 3.0 0.01 0.15 0.07 94 1021.4
20140416130513 50 39 0.0 7.0 0.01 0.15 0.07 93 1021.4
20140416130013 50 142 0.0 7.0 0.01 0.14 0.07 93 1021.4
20140416125513 50 152 1.0 7.0 0.01 0.14 0.07 93 1021.4
20140416125013 50 112 0.0 5.0 0.00 0.14 0.06 93 1021.4
20140416124513 50 58 1.0 3.0 0.00 0.14 0.06 93 1021.4
20140416124013 50 57 0.0 3.0 0.00 0.14 0.06 93 1021.4
20140416123013 50 0 0.0 4.0 0.00 0.14 0.06 93 1021.4
20140416122513 50 191 0.0 4.0 0.00 0.14 0.06 93 1021.4
20140416122013 50 0 0.0 0.0 0.00 0.14 0.06 93 1021.5
20140416121513 50 0 0.0 0.0 0.00 0.14 0.06 93 1021.4
20140416121013 50 0 0.0 0.0 0.00 0.14 0.06 93 1021.3
20140416120513 51 0 0.0 0.0 0.00 0.14 0.06 93 1021.3
20140416120013 50 0 0.0 0.0 0.00 0.14 0.06 93 1021.3
20140416115513 50 0 0.0 0.0 0.00 0.14 0.06 93 1021.4
20140416115013 50 0 0.0 0.0 0.00 0.14 0.06 93 1021.3
20140416114513 50 0 0.0 0.0 0.00 0.14 0.06 93 1021.4
20140416114013 50 0 0.0 0.0 0.00 0.14 0.06 93 1021.5
20140416113513 50 0 0.0 0.0 0.00 0.14 0.06 93 1021.6
20140416112513 50 0 0.0 0.0 0.00 0.14 0.06 93 1021.6
20140416112014 50 0 0.0 0.0 0.00 0.14 0.06 93 1021.7
20140416111513 50 0 0.0 0.0 0.00 0.14 0.06 93 1021.6
20140416111013 50 0 0.0 0.0 0.00 0.14 0.06 93 1021.5
20140416110513 50 0 0.0 0.0 0.00 0.14 0.06 93 1021.6
20140416110013 50 0 0.0 0.0 0.00 0.14 0.06 93 1021.6
20140416105513 49 0 0.0 0.0 0.00 0.14 0.06 93 1021.6
20140416105013 50 0 0.0 0.0 0.00 0.14 0.06 93 1021.6
20140416104513 50 0 0.0 0.0 0.00 0.14 0.06 93 1021.6
20140416104013 50 0 0.0 0.0 0.00 0.14 0.06 93 1021.6
20140416103513 50 0 0.0 0.0 0.00 0.14 0.06 93 1021.6
20140416103013 49 0 0.0 0.0 0.01 0.14 0.06 93 1021.7
20140416102518 50 0 0.0 0.0 0.01 0.14 0.06 93 1021.6
20140416102013 50 0 0.0 0.0 0.02 0.14 0.06 93 1021.6
20140416101013 50 0 0.0 0.0 0.03 0.14 0.06 93 1021.5
20140416100513 50 0 0.0 0.0 0.03 0.14 0.06 93 1021.6
20140416100013 50 0 0.0 0.0 0.04 0.11 0.06 92 1021.6
20140416095513 50 0 0.0 0.0 0.04 0.11 0.06 92 1021.6
20140416095014 50 0 0.0 0.0 0.04 0.11 0.06 92 1021.7
20140416094514 49 0 0.0 4.0 0.04 0.11 0.06 92 1021.6
20140416094013 50 106 0.0 4.0 0.04 0.11 0.06 92 1021.7
20140416093513 50 72 2.0 4.0 0.04 0.11 0.06 92 1021.8
20140416093013 50 0 0.0 0.0 0.04 0.11 0.05 92 1021.8
20140416092513 50 0 0.0 3.0 0.04 0.11 0.05 92 1021.8
20140416092013 50 36 0.0 3.0 0.03 0.11 0.05 92 1021.8
20140416091513 50 57 0.0 3.0 0.03 0.11 0.04 92 1021.6
20140416091013 50 0 0.0 0.0 0.03 0.11 0.03 92 1021.6
20140416090513 49 0 0.0 0.0 0.03 0.11 0.03 92 1021.7
20140416090013 50 0 0.0 0.0 0.02 0.08 0.03 92 1021.7
20140416085513 50 0 0.0 3.0 0.02 0.08 0.02 92 1021.7
20140416085013 49 0 0.0 3.0 0.02 0.08 0.02 92 1021.8
20140416084513 50 58 0.0 3.0 0.02 0.08 0.02 92 1021.8
20140416084013 49 0 0.0 0.0 0.02 0.08 0.02 92 1021.9
20140416083513 50 0 0.0 0.0 0.02 0.08 0.02 92 1022.0
20140416083013 49 0 0.0 0.0 0.01 0.08 0.02 92 1022.0
20140416082513 50 0 0.0 0.0 0.01 0.08 0.01 92 1021.9
20140416082013 50 0 0.0 0.0 0.01 0.08 0.01 91 1022.0
20140416081013 50 0 0.0 0.0 0.00 0.08 0.01 91 1022.0
20140416080513 50 0 0.0 0.0 0.00 0.08 0.00 91 1022.0
20140416080013 49 0 0.0 0.0 0.00 0.08 0.00 91 1022.0
20140416075513 50 0 0.0 0.0 0.00 0.08 0.00 91 1022.0
20140416075013 50 0 0.0 0.0 0.00 0.08 0.00 91 1022.0
20140416074513 50 0 0.0 0.0 0.00 0.08 0.00 91 1022.1
20140416074013 50 0 0.0 0.0 0.01 0.08 0.00 91 1022.1
20140416073513 49 0 0.0 0.0 0.01 0.08 0.00 91 1022.1
20140416073013 50 0 0.0 0.0 0.01 0.08 0.00 91 1022.1
20140416072513 50 0 0.0 0.0 0.01 0.08 0.00 91 1022.0
20140416072013 50 0 0.0 0.0 0.01 0.08 0.00 91 1022.0
20140416071513 50 0 0.0 0.0 0.01 0.08 0.00 91 1022.0
20140416071013 50 0 0.0 0.0 0.01 0.08 0.00 91 1022.0
20140416070513 50 0 0.0 0.0 0.01 0.08 0.00 90 1022.2
20140416070013 50 0 0.0 0.0 0.01 0.08 0.00 90 1022.2
20140416065513 50 0 0.0 0.0 0.01 0.08 0.08 90 1022.2
20140416065013 50 0 0.0 0.0 0.02 0.08 0.08 90 1022.2
20140416064513 50 0 0.0 0.0 0.02 0.08 0.08 90 1022.2
20140416064013 50 0 0.0 0.0 0.01 0.07 0.07 90 1022.1
20140416063513 50 0 0.0 0.0 0.01 0.07 0.07 90 1022.1
20140416063013 50 0 0.0 0.0 0.02 0.07 0.07 89 1022.1
20140416062513 50 0 0.0 0.0 0.02 0.07 0.07 89 1022.0
20140416062013 50 0 0.0 0.0 0.02 0.07 0.07 89 1022.1
20140416061513 50 0 0.0 0.0 0.02 0.07 0.07 89 1022.1
20140416061013 50 0 0.0 0.0 0.02 0.07 0.07 89 1022.1
20140416060513 50 0 0.0 0.0 0.02 0.07 0.07 88 1022.2
20140416060013 50 0 0.0 0.0 0.03 0.07 0.07 88 1022.2
20140416055513 51 0 0.0 5.0 0.03 0.07 0.07 88 1022.2
20140416055013 51 323 0.0 5.0 0.02 0.06 0.06 88 1022.2
20140416054513 51 338 0.0 5.0 0.02 0.06 0.06 88 1022.2
20140416054013 51 0 0.0 0.0 0.03 0.06 0.06 88 1022.2
20140416053513 51 0 0.0 0.0 0.03 0.06 0.06 88 1022.2
20140416053013 51 0 0.0 0.0 0.02 0.06 0.06 88 1022.3
20140416052513 51 0 0.0 0.0 0.02 0.05 0.05 87 1022.1
20140416052013 51 0 0.0 0.0 0.04 0.05 0.05 87 1022.2
20140416051513 51 0 0.0 0.0 0.04 0.05 0.05 87 1022.2
20140416051013 51 0 0.0 0.0 0.05 0.05 0.05 86 1022.2
20140416050513 51 0 0.0 3.0 0.05 0.05 0.05 86 1022.2
20140416050013 51 0 0.0 3.0 0.04 0.05 0.05 86 1022.2
20140416045513 51 0 0.0 3.0 0.04 0.04 0.04 86 1022.3
20140416045013 51 281 0.0 7.0 0.04 0.04 0.04 86 1022.4
20140416044513 51 302 1.0 7.0 0.04 0.04 0.04 85 1022.4
20140416044013 52 271 0.0 7.0 0.03 0.04 0.04 85 1022.4
20140416043513 51 263 3.0 8.0 0.03 0.03 0.03 85 1022.3
20140416043014 51 280 3.0 8.0 0.03 0.03 0.03 85 1022.4
20140416042513 51 282 3.0 8.0 0.03 0.03 0.03 84 1022.4
20140416042013 52 252 3.0 8.0 0.01 0.02 0.02 84 1022.3
20140416041513 52 275 4.0 11.0 0.01 0.01 0.01 83 1022.3
20140416041013 52 257 5.0 11.0 0.00 0.01 0.01 83 1022.3
20140416040513 52 275 6.0 11.0 0.00 0.00 0.00 82 1022.4
20140416040013 52 275 5.0 10.0 0.00 0.01 0.00 82 1022.3
20140416035513 53 250 3.0 8.0 0.00 0.01 0.00 83 1022.4
20140416035013 53 274 3.0 5.0 0.00 0.01 0.00 82 1022.3
20140416034513 53 270 2.0 5.0 0.00 0.01 0.00 82 1022.3
20140416034013 53 260 2.0 5.0 0.00 0.01 0.00 82 1022.3
20140416033513 53 253 1.0 5.0 0.00 0.01 0.00 81 1022.3
20140416033013 53 0 0.0 4.0 0.00 0.01 0.00 81 1022.3
20140416032514 53 228 0.0 4.0 0.00 0.01 0.00 80 1022.3
20140416032013 53 231 0.0 4.0 0.00 0.01 0.00 80 1022.3
20140416031513 53 198 0.0 3.0 0.00 0.01 0.00 80 1022.4
20140416031013 54 0 0.0 0.0 0.00 0.01 0.00 80 1022.4
20140416030513 53 0 0.0 4.0 0.00 0.01 0.00 79 1022.4
20140416030013 53 205 0.0 4.0 0.00 0.01 0.00 79 1022.5
20140416025513 54 232 0.0 4.0 0.00 0.01 0.00 79 1022.5
20140416025013 54 236 1.0 4.0 0.00 0.01 0.00 78 1022.7
20140416024513 54 0 0.0 0.0 0.00 0.01 0.00 78 1022.8
20140416024013 54 0 0.0 0.0 0.00 0.01 0.00 78 1022.9
20140416023513 54 0 0.0 0.0 0.00 0.01 0.00 78 1022.9
20140416023013 54 0 0.0 0.0 0.00 0.01 0.00 78 1022.9
20140416022513 54 0 0.0 4.0 0.00 0.01 0.00 77 1022.9
20140416022013 54 0 0.0 4.0 0.00 0.01 0.00 77 1023.0
20140416021513 54 225 0.0 4.0 0.00 0.01 0.00 77 1023.1
20140416021013 54 231 2.0 4.0 0.00 0.01 0.00 77 1023.1
20140416020513 54 0 0.0 4.0 0.00 0.01 0.00 77 1023.1
20140416020013 54 0 0.0 4.0 0.00 0.01 0.00 77 1023.3
20140416015513 54 214 0.0 4.0 0.00 0.01 0.00 76 1023.4
20140416015013 55 0 0.0 0.0 0.00 0.01 0.00 76 1023.5
20140416014513 54 0 0.0 0.0 0.00 0.01 0.00 76 1023.6
20140416014013 55 0 0.0 0.0 0.00 0.01 0.00 76 1023.6
20140416013513 54 0 0.0 0.0 0.00 0.01 0.00 75 1023.6
20140416013013 54 0 0.0 0.0 0.00 0.01 0.00 75 1023.7
20140416012513 54 0 0.0 0.0 0.00 0.01 0.00 75 1023.8
20140416012013 54 0 0.0 0.0 0.00 0.01 0.00 75 1023.8
20140416011513 55 0 0.0 6.0 0.00 0.01 0.00 75 1023.9
20140416011013 55 266 0.0 6.0 0.00 0.01 0.00 75 1024.0
20140416010513 54 263 0.0 6.0 0.00 0.01 0.00 75 1024.0
20140416010013 55 256 6.0 6.0 0.00 0.01 0.00 74 1024.2
20140416005513 55 271 5.0 5.0 0.00 0.01 0.00 74 1024.3
20140416005013 56 263 4.0 5.0 0.00 0.01 0.00 74 1024.3
20140416004513 55 260 5.0 6.0 0.00 0.01 0.00 74 1024.3
20140416004013 56 260 5.0 6.0 0.00 0.01 0.00 74 1024.2
20140416003514 55 275 4.0 6.0 0.00 0.01 0.00 74 1024.3
20140416003012 56 259 3.0 6.0 0.00 0.01 0.00 74 1024.3
20140416002512 56 275 3.0 6.0 0.00 0.01 0.00 74 1024.4
20140416002013 55 278 5.0 6.0 0.00 0.01 0.00 74 1024.4
20140416001512 56 282 3.0 8.0 0.00 0.01 0.00 74 1024.4
20140416001012 56 263 5.0 8.0 0.00 0.01 0.00 74 1024.4
20140416000514 56 295 6.0 8.0 0.00 0.01 0.00 73 1024.5
20140416000012 56 295 5.0 8.0 0.00 0.01 0.00 73 1024.7
20140415235512 56 275 5.0 9.0 0.00 0.01 0.00 72 1024.5
20140415235012 57 264 6.0 9.0 0.00 0.01 0.00 72 1024.4
20140415234514 57 273 6.0 9.0 0.00 0.01 0.00 70 1024.2
20140415234012 57 268 7.0 9.0 0.00 0.01 0.00 70 1024.2
20140415233512 58 270 6.0 8.0 0.00 0.01 0.00 70 1024.1
20140415233014 58 294 3.0 9.0 0.00 0.01 0.00 71 1024.1
20140415232512 58 259 5.0 9.0 0.00 0.01 0.00 70 1024.1
20140415232012 58 285 7.0 9.0 0.00 0.01 0.00 70 1024.1
20140415231512 59 287 5.0 8.0 0.00 0.01 0.00 69 1024.2
20140415231012 59 275 6.0 9.0 0.00 0.01 0.00 69 1024.1
20140415230512 59 295 5.0 9.0 0.00 0.01 0.00 70 1024.2
20140415230012 59 264 7.0 9.0 0.00 0.01 0.00 69 1024.3
20140415225512 58 274 6.0 9.0 0.00 0.01 0.00 70 1024.4
20140415225012 59 274 7.0 9.0 0.00 0.01 0.00 69 1024.4
20140415224512 59 274 7.0 9.0 0.00 0.01 0.00 69 1024.5
20140415224012 59 266 6.0 8.0 0.00 0.01 0.00 69 1024.6
20140415223512 59 275 6.0 8.0 0.00 0.01 0.00 70 1024.7
20140415223012 59 289 5.0 8.0 0.00 0.01 0.00 69 1024.8
20140415222512 59 275 5.0 8.0 0.00 0.01 0.00 69 1024.7
20140415222012 59 274 5.0 8.0 0.00 0.01 0.00 69 1024.7
20140415221512 59 285 6.0 9.0 0.00 0.01 0.00 69 1024.6
20140415221012 59 273 6.0 9.0 0.00 0.01 0.00 69 1024.7
20140415220512 59 284 4.0 9.0 0.00 0.01 0.00 69 1024.7
20140415220012 59 280 6.0 8.0 0.00 0.01 0.00 69 1024.7
20140415215512 59 264 4.0 8.0 0.00 0.01 0.00 69 1024.7